Simultaneous Nadir Overpasses (SNOs) Predictions

Prediction of SNOs between AQUA and NPP Satellite Orbit:

Table of predicted SNOs for the next 14.0 days since TLE Epoch: 1/4/2020
Index Date (AQUA) Time (AQUA) Lat,Lon (AQUA) SZA (AQUA ) Date (NPP) Time (NPP) Lat,Lon (NPP) SZA (NPP ) Distance(km) Time Diff (sec)
1 01/04/2020 06:21:30 75.91, -36.60 119.74 01/04/2020 06:21:12 75.90, -36.68 119.78 2.42 18
2 01/04/2020 07:10:33 -77.06, 134.93 61.55 01/04/2020 07:11:32 -77.07, 134.96 61.61 0.79 59
3 01/06/2020 21:48:46 -75.27, -90.21 59.79 01/06/2020 21:47:35 -75.27, -90.23 59.71 0.69 71
4 01/06/2020 22:37:44 76.63, 81.61 118.72 01/06/2020 22:37:49 76.64, 81.71 118.69 2.81 5
5 01/09/2020 14:05:08 -75.61, 26.63 60.43 01/09/2020 14:04:21 -75.60, 26.58 60.37 1.59 47
6 01/09/2020 14:54:07 76.90,-161.54 118.13 01/09/2020 14:54:36 76.91,-161.44 118.08 2.69 29
7 01/12/2020 06:21:30 -75.94, 143.50 61.13 01/12/2020 06:21:07 -75.93, 143.43 61.09 2.01 23
8 01/12/2020 07:10:37 76.83, -45.90 117.87 01/12/2020 07:11:31 76.82, -46.00 117.84 2.92 54
9 01/14/2020 21:50:37 69.23, 78.47 125.35 01/14/2020 21:49:24 69.33, 77.69 125.59 32.61 73
10 01/14/2020 22:37:51 -76.26, -99.61 61.87 01/14/2020 22:37:52 -76.26, -99.68 61.86 1.97 1
11 01/14/2020 23:24:11 81.82, 123.78 107.92 01/14/2020 23:25:24 81.30, 123.76 107.66 57.97 73
12 01/17/2020 14:05:06 75.57,-153.48 118.47 01/17/2020 14:04:14 75.56,-153.53 118.54 1.69 52




NCC Satellite Simultaneous Nadir Overpasses (SNOs) Prediction Service
